FW1981 Weather Reports


Display with metric or nautical units.
time (UTC)temp
F
wind
direction
speed
MPH
gust
MPH
rain 1hr
in
rain 24hr
in
rain mn
in
humidity
%
barometer
mb
20260506110020 48 288 3.0 11.0 0.00 0.00 0.00 89 1019.6
20260506105518 48 136 2.0 8.0 0.00 0.00 0.00 90 1019.6
20260506105018 48 226 3.0 10.0 0.00 0.00 0.00 90 1019.7
20260506104525 47 217 4.0 10.0 0.00 0.00 0.00 90 1019.5
20260506104035 47 236 2.0 6.0 0.00 0.00 0.00 90 1019.7
20260506103524 47 242 3.0 9.0 0.00 0.00 0.00 91 1019.7
20260506103024 47 234 3.0 9.0 0.00 0.00 0.00 91 1019.6
20260506102525 47 275 2.0 6.0 0.00 0.00 0.00 91 1019.6
20260506102023 47 251 2.0 6.0 0.00 0.00 0.00 91 1019.6
20260506101539 47 281 1.0 7.0 0.00 0.00 0.00 91 1019.6
20260506101022 47 265 1.0 6.0 0.00 0.00 0.00 91 1019.5
20260506100520 47 228 1.0 10.0 0.00 0.00 0.00 92 1019.5
20260506100018 47 227 2.0 10.0 0.00 0.00 0.00 92 1019.5
20260506095525 46 272 2.0 8.0 0.00 0.00 0.00 92 1019.5
20260506095025 46 240 2.0 6.0 0.00 0.00 0.00 92 1019.6
20260506094524 46 238 1.0 6.0 0.00 0.00 0.00 92 1019.6
20260506094025 46 20 3.0 8.0 0.00 0.00 0.00 92 1019.5
20260506093524 46 243 1.0 8.0 0.00 0.00 0.00 93 1019.2
20260506093022 46 233 1.0 7.0 0.00 0.00 0.00 93 1019.3
20260506092532 46 239 3.0 7.0 0.00 0.00 0.00 93 1019.2
20260506092020 46 180 2.0 7.0 0.00 0.00 0.00 92 1019.3
20260506091518 46 332 1.0 7.0 0.00 0.00 0.00 92 1019.2
20260506091018 46 259 2.0 6.0 0.00 0.00 0.00 92 1019.2
20260506090518 46 174 2.0 6.0 0.00 0.00 0.00 92 1019.1
20260506090018 46 250 2.0 6.0 0.00 0.00 0.00 92 1018.9
20260506085526 46 210 3.0 8.0 0.00 0.00 0.00 92 1018.9
20260506085024 46 249 2.0 8.0 0.00 0.00 0.00 92 1019.0
20260506084535 46 243 2.0 10.0 0.00 0.00 0.00 92 1018.9
20260506084024 46 249 2.0 10.0 0.00 0.00 0.00 92 1018.9
20260506083525 46 270 3.0 8.0 0.00 0.00 0.00 92 1018.8
20260506083024 46 196 2.0 5.0 0.00 0.00 0.00 92 1018.8
20260506082526 46 290 1.0 3.0 0.00 0.00 0.00 92 1018.8
20260506082024 46 76 1.0 6.0 0.00 0.00 0.00 92 1018.8
20260506081523 46 185 0.0 6.0 0.00 0.00 0.00 92 1018.8
20260506081022 46 240 1.0 3.0 0.00 0.00 0.00 92 1018.9
20260506080522 46 250 1.0 3.0 0.00 0.00 0.00 92 1018.8
20260506073523 46 113 2.0 6.0 0.00 0.00 0.00 92 1018.5
20260506073023 46 221 2.0 6.0 0.00 0.00 0.00 92 1018.6
20260506072522 46 293 2.0 6.0 0.00 0.00 0.00 92 1018.5
20260506072022 46 158 2.0 7.0 0.00 0.00 0.00 92 1018.6
20260506071522 46 259 3.0 8.0 0.00 0.00 0.00 92 1018.6
20260506071023 46 37 2.0 8.0 0.00 0.00 0.00 92 1018.6
20260506070522 46 249 2.0 9.0 0.00 0.00 0.00 92 1018.6
20260506062023 45 294 3.0 10.0 0.00 0.00 0.00 91 1018.4
20260506061523 45 132 4.0 10.0 0.00 0.00 0.00 91 1018.3
20260506061022 45 250 4.0 10.0 0.00 0.00 0.00 91 1018.2
20260506060522 45 318 3.0 13.0 0.00 0.00 0.00 91 1018.3
20260506051029 46 231 3.0 8.0 0.00 0.00 0.00 91 1018.4
20260506050518 46 255 2.0 6.0 0.00 0.00 0.00 91 1018.3
20260506045029 46 254 2.0 7.0 0.00 0.00 0.00 91 1018.2
20260506044519 46 279 2.0 7.0 0.00 0.00 0.00 91 1018.3
20260506044019 46 245 2.0 7.0 0.00 0.00 0.00 91 1018.3
20260506043529 46 226 1.0 8.0 0.00 0.00 0.00 91 1018.4
20260506043019 46 241 2.0 8.0 0.00 0.00 0.00 91 1018.3
20260506042519 46 217 2.0 9.0 0.00 0.00 0.00 91 1018.3
20260506042018 46 271 4.0 9.0 0.00 0.00 0.00 90 1018.3
20260506041519 46 254 2.0 9.0 0.00 0.00 0.00 90 1018.3
20260506041018 46 284 2.0 9.0 0.00 0.00 0.00 90 1018.3
20260506040526 46 205 2.0 7.0 0.00 0.00 0.00 90 1018.3
20260506040026 46 238 3.0 10.0 0.00 0.00 0.00 90 1018.3
20260506035525 46 275 3.0 10.0 0.00 0.00 0.00 90 1018.4
20260506035025 46 238 3.0 7.0 0.00 0.00 0.00 90 1018.5
20260506034525 46 131 3.0 8.0 0.00 0.00 0.00 90 1018.4
20260506034036 47 250 3.0 10.0 0.00 0.00 0.00 91 1018.2
20260506033525 46 203 4.0 12.0 0.00 0.00 0.00 91 1018.2
20260506033023 46 288 5.0 12.0 0.00 0.00 0.00 91 1018.3
20260506032523 46 292 2.0 9.0 0.00 0.00 0.00 91 1018.3
20260506032021 45 245 2.0 9.0 0.00 0.00 0.00 91 1018.3
20260506031521 45 34 3.0 9.0 0.00 0.00 0.00 90 1018.4
20260506031021 45 242 2.0 7.0 0.00 0.00 0.00 90 1018.3
20260506030522 45 264 2.0 8.0 0.00 0.00 0.00 90 1018.3
20260506030021 45 217 2.0 8.0 0.00 0.00 0.00 90 1018.2
20260506025531 45 321 2.0 8.0 0.00 0.00 0.00 91 1018.2
20260506025020 46 200 2.0 6.0 0.00 0.00 0.00 90 1018.3
20260506024532 46 160 2.0 9.0 0.00 0.00 0.00 91 1018.2
20260506024020 46 221 2.0 9.0 0.00 0.00 0.00 91 1018.3
20260506023521 46 269 3.0 7.0 0.00 0.00 0.00 91 1018.3
20260506023020 46 255 3.0 10.0 0.00 0.00 0.00 91 1018.2
20260506022521 46 255 3.0 9.0 0.00 0.00 0.00 91 1018.3
20260506022020 46 249 2.0 7.0 0.00 0.00 0.00 91 1018.3
20260506021521 46 218 2.0 8.0 0.00 0.00 0.00 91 1018.4
20260506021020 46 304 3.0 9.0 0.00 0.00 0.00 91 1018.4
20260506020521 46 203 2.0 9.0 0.00 0.00 0.00 92 1018.4
20260506020021 46 42 2.0 10.0 0.00 0.00 0.00 92 1018.4
20260506015521 46 342 2.0 10.0 0.00 0.00 0.00 92 1018.4
20260506015022 45 255 2.0 9.0 0.00 0.00 0.00 92 1018.4
20260506014521 45 257 3.0 9.0 0.00 0.00 0.00 92 1018.3
20260506014020 45 259 4.0 8.0 0.00 0.00 0.00 92 1018.3
20260506013522 45 221 3.0 8.0 0.00 0.00 0.00 93 1018.2
20260506013020 45 97 3.0 6.0 0.00 0.00 0.00 92 1018.3
20260506012520 44 246 2.0 5.0 0.00 0.00 0.00 92 1018.2
20260506012021 44 273 2.0 6.0 0.00 0.00 0.00 92 1018.1
20260506011522 44 143 1.0 6.0 0.00 0.00 0.00 92 1018.1
20260506011022 44 314 2.0 8.0 0.00 0.00 0.00 92 1018.2
20260506010521 44 14 1.0 8.0 0.00 0.00 0.00 92 1018.0
20260506010021 45 263 3.0 7.0 0.00 0.00 0.00 92 1017.9
20260506005522 45 233 2.0 6.0 0.00 0.00 0.00 92 1017.9
20260506005022 45 239 2.0 6.0 0.00 0.00 0.00 92 1017.6
20260506004521 45 256 2.0 7.0 0.00 0.00 0.00 92 1017.4
20260506004020 45 270 2.0 7.0 0.00 0.00 0.00 92 1017.3
20260506003519 45 257 3.0 7.0 0.00 0.00 0.00 92 1017.3
20260506003019 45 198 2.0 9.0 0.00 0.00 0.00 91 1017.3
20260506002519 45 224 3.0 10.0 0.00 0.00 0.00 91 1017.1
20260506002031 45 255 3.0 10.0 0.00 0.00 0.00 92 1017.1
20260506001519 45 226 2.0 8.0 0.00 0.00 0.00 92 1017.0
20260506001020 45 167 2.0 8.0 0.00 0.00 0.00 92 1016.9
20260506000519 45 193 4.0 11.0 0.00 0.00 0.00 92 1016.8
20260506000018 45 225 4.0 10.0 0.00 0.00 0.00 92 1016.7
20260505235531 45 247 4.0 10.0 0.00 0.00 0.00 92 1016.7
20260505235030 45 273 3.0 10.0 0.00 0.00 0.00 92 1016.6
20260505234519 45 221 3.0 10.0 0.00 0.00 0.00 91 1016.5
20260505234019 45 244 4.0 11.0 0.00 0.00 0.00 91 1016.4
20260505233519 45 241 4.0 11.0 0.00 0.00 0.00 91 1016.5
20260505233019 45 264 3.0 8.0 0.00 0.00 0.00 91 1016.2
20260505230522 46 286 3.0 14.0 0.00 0.00 0.00 91 1015.9
20260505230019 46 208 5.0 14.0 0.00 0.00 0.00 90 1015.8
20260505225521 46 245 5.0 14.0 0.00 0.00 0.00 90 1015.6
20260505222019 47 210 3.0 10.0 0.00 0.00 0.00 90 1015.4
20260505213031 48 245 3.0 11.0 0.00 0.00 0.00 88 1015.2
20260505205531 48 301 4.0 12.0 0.00 0.00 0.00 87 1015.5
20260505204520 48 293 3.0 15.0 0.00 0.00 0.00 87 1015.6
20260505203519 48 179 4.0 12.0 0.00 0.00 0.00 86 1015.7
20260505202520 48 167 3.0 12.0 0.00 0.00 0.00 86 1015.7
20260505194020 49 72 3.0 12.0 0.00 0.00 0.00 84 1015.8
20260505183020 49 269 6.0 16.0 0.00 0.00 0.00 83 1015.5
20260505175520 49 257 5.0 13.0 0.00 0.00 0.00 80 1016.0
20260505171520 49 233 7.0 17.0 0.00 0.00 0.00 80 1015.8
20260505161116 50 219 5.0 15.0 0.00 0.00 0.00 79 1015.9
20260505125009 48 218 3.0 12.0 0.00 0.00 0.00 80 1015.1
20260505124516 47 270 4.0 12.0 0.00 0.00 0.00 80 1015.0
20260505124008 47 151 4.0 12.0 0.00 0.00 0.00 80 1014.9
20260505123516 47 302 4.0 15.0 0.00 0.00 0.00 80 1014.9
20260505123008 47 264 5.0 15.0 0.00 0.00 0.00 79 1014.8
20260505122516 47 247 4.0 10.0 0.00 0.00 0.00 80 1015.0
20260505122021 47 255 2.0 10.0 0.00 0.00 0.00 81 1015.0
20260505121516 47 236 3.0 12.0 0.00 0.00 0.00 81 1014.9
20260505121009 46 266 4.0 12.0 0.00 0.00 0.00 80 1014.9
20260505120516 46 117 4.0 11.0 0.00 0.00 0.00 81 1014.7
20260505120009 46 262 4.0 10.0 0.00 0.00 0.00 80 1014.6
20260505115521 46 253 2.0 12.0 0.00 0.00 0.00 82 1014.5
20260505115009 45 249 3.0 12.0 0.00 0.00 0.00 83 1014.4
20260505114517 45 252 2.0 10.0 0.00 0.00 0.00 84 1014.4
20260505114020 44 177 3.0 14.0 0.00 0.00 0.00 84 1014.2
20260505113516 44 246 4.0 14.0 0.00 0.00 0.00 84 1014.2
20260505113009 44 253 4.0 10.0 0.00 0.00 0.00 84 1014.1
20260505112517 44 225 2.0 11.0 0.00 0.00 0.00 85 1014.2
20260505112020 43 188 3.0 11.0 0.00 0.00 0.00 86 1014.0
20260505111517 42 267 3.0 9.0 0.00 0.00 0.00 87 1013.9
20260505111009 42 255 2.0 8.0 0.00 0.00 0.00 87 1013.9
20260505110527 42 231 2.0 9.0 0.00 0.00 0.00 87 1013.9